Time,TemperatureF,DewpointF,PressureIn,WindDirection,WindDirectionDegrees,WindSpeedMPH,WindSpeedGustMPH,Humidity,HourlyPrecipIn,Conditions,Clouds,dailyrainin,SoftwareType,DateUTC
2013-03-02 00:15:00,24.5,18.0,30.05,East,83,4.0,-999.0,77,-99.99,,,0.00,weatherlink.com 1.10,2013-03-02 05:15:00,
2013-03-02 00:30:00,24.4,18.0,30.05,NE,34,4.0,-999.0,77,-99.99,,,0.00,weatherlink.com 1.10,2013-03-02 05:30:00,
2013-03-02 00:45:00,24.4,18.0,30.05,ENE,57,4.0,-999.0,77,-99.99,,,0.00,weatherlink.com 1.10,2013-03-02 05:45:00,
2013-03-02 01:00:00,24.2,18.0,30.05,North,11,4.0,-999.0,77,-99.99,,,0.00,weatherlink.com 1.10,2013-03-02 06:00:00,
2013-03-02 01:15:00,24.2,18.0,30.05,NNE,28,6.0,-999.0,77,-99.99,,,0.00,weatherlink.com 1.10,2013-03-02 06:15:00,
2013-03-02 01:30:00,24.1,18.0,30.05,NE,52,2.0,-999.0,77,-99.99,,,0.00,weatherlink.com 1.10,2013-03-02 06:30:00,
2013-03-02 01:45:00,24.1,18.0,30.05,NNW,334,1.0,-999.0,78,-99.99,,,0.00,weatherlink.com 1.10,2013-03-02 06:45:00,
2013-03-02 02:00:00,24.1,19.0,30.05,NNW,327,1.0,-999.0,79,-99.99,,,0.00,weatherlink.com 1.10,2013-03-02 07:00:00,
2013-03-02 02:15:00,24.2,18.0,30.05,NNW,336,2.0,-999.0,78,-99.99,,,0.00,weatherlink.com 1.10,2013-03-02 07:15:00,
2013-03-02 02:30:00,24.2,18.0,30.04,NW,323,3.0,-999.0,77,-99.99,,,0.00,weatherlink.com 1.10,2013-03-02 07:30:00,
2013-03-02 02:45:00,24.2,18.0,30.04,NNW,348,4.0,-999.0,78,-99.99,,,0.00,weatherlink.com 1.10,2013-03-02 07:45:00,
2013-03-02 03:00:00,24.2,18.0,30.04,NNW,340,3.0,-999.0,78,-99.99,,,0.00,weatherlink.com 1.10,2013-03-02 08:00:00,
2013-03-02 03:15:00,24.1,18.0,30.04,NW,311,4.0,-999.0,78,-99.99,,,0.00,weatherlink.com 1.10,2013-03-02 08:15:00,
2013-03-02 03:30:00,24.1,19.0,30.03,NNW,336,2.0,-999.0,79,-99.99,,,0.00,weatherlink.com 1.10,2013-03-02 08:30:00,
2013-03-02 03:45:00,23.9,18.0,30.03,NW,309,3.0,-999.0,78,-99.99,,,0.00,weatherlink.com 1.10,2013-03-02 08:45:00,
2013-03-02 04:00:00,23.8,18.0,30.03,NW,306,3.0,-999.0,78,-99.99,,,0.00,weatherlink.com 1.10,2013-03-02 09:00:00,
2013-03-02 04:15:00,23.6,18.0,30.02,NW,323,5.0,-999.0,78,-99.99,,,0.00,weatherlink.com 1.10,2013-03-02 09:15:00,
2013-03-02 04:30:00,23.6,18.0,30.02,NW,323,3.0,-999.0,78,-99.99,,,0.00,weatherlink.com 1.10,2013-03-02 09:30:00,
2013-03-02 04:45:00,23.6,18.0,30.02,NNW,329,4.0,-999.0,78,-99.99,,,0.00,weatherlink.com 1.10,2013-03-02 09:45:00,
2013-03-02 05:00:00,23.6,18.0,30.02,NW,317,3.0,-999.0,78,-99.99,,,0.00,weatherlink.com 1.10,2013-03-02 10:00:00,
2013-03-02 05:30:00,23.6,18.0,30.02,NNW,338,4.0,-999.0,78,-99.99,,,0.00,weatherlink.com 1.10,2013-03-02 10:30:00,
2013-03-02 05:45:00,23.8,18.0,30.02,NNW,344,5.0,-999.0,78,-99.99,,,0.00,weatherlink.com 1.10,2013-03-02 10:45:00,
2013-03-02 06:00:00,23.8,18.0,30.02,NNW,342,5.0,-999.0,79,-99.99,,,0.00,weatherlink.com 1.10,2013-03-02 11:00:00,
2013-03-02 06:15:00,23.6,18.0,30.03,NW,325,4.0,-999.0,80,-99.99,,,0.00,weatherlink.com 1.10,2013-03-02 11:15:00,
2013-03-02 06:30:00,23.6,18.0,30.03,NNW,327,4.0,-999.0,80,-99.99,,,0.00,weatherlink.com 1.10,2013-03-02 11:30:00,
2013-03-02 06:45:00,23.5,18.0,30.03,NW,315,2.0,-999.0,80,-99.99,,,0.00,weatherlink.com 1.10,2013-03-02 11:45:00,
2013-03-02 07:00:00,23.5,18.0,30.03,NW,315,4.0,-999.0,80,-99.99,,,0.00,weatherlink.com 1.10,2013-03-02 12:00:00,
2013-03-02 07:15:00,23.5,18.0,30.04,NNW,331,1.0,-999.0,80,-99.99,,,0.00,weatherlink.com 1.10,2013-03-02 12:15:00,
2013-03-02 07:30:00,23.3,18.0,30.04,NW,315,4.0,-999.0,80,-99.99,,,0.00,weatherlink.com 1.10,2013-03-02 12:30:00,
2013-03-02 07:45:00,23.2,18.0,30.04,WNW,285,4.0,-999.0,81,-99.99,,,0.00,weatherlink.com 1.10,2013-03-02 12:45:00,
2013-03-02 08:00:00,23.0,18.0,30.05,NW,319,7.0,-999.0,81,-99.99,,,0.00,weatherlink.com 1.10,2013-03-02 13:00:00,
2013-03-02 08:15:00,23.0,18.0,30.05,NNW,327,2.0,-999.0,81,-99.99,,,0.00,weatherlink.com 1.10,2013-03-02 13:15:00,
2013-03-02 08:30:00,23.0,18.0,30.05,NW,322,6.0,-999.0,82,-99.99,,,0.00,weatherlink.com 1.10,2013-03-02 13:30:00,
2013-03-02 08:45:00,23.0,18.0,30.05,WNW,298,6.0,-999.0,82,-99.99,,,0.00,weatherlink.com 1.10,2013-03-02 13:45:00,
2013-03-02 09:00:00,23.3,19.0,30.05,NNW,329,3.0,-999.0,82,-99.99,,,0.00,weatherlink.com 1.10,2013-03-02 14:00:00,
2013-03-02 09:15:00,23.3,19.0,30.05,NNW,333,6.0,-999.0,82,-99.99,,,0.00,weatherlink.com 1.10,2013-03-02 14:15:00,
2013-03-02 09:30:00,23.3,19.0,30.05,North,349,5.0,-999.0,82,-99.99,,,0.00,weatherlink.com 1.10,2013-03-02 14:30:00,
2013-03-02 09:45:00,23.3,19.0,30.05,NW,314,5.0,-999.0,82,-99.99,,,0.00,weatherlink.com 1.10,2013-03-02 14:45:00,
2013-03-02 10:00:00,23.2,18.0,30.05,North,355,11.0,-999.0,81,-99.99,,,0.00,weatherlink.com 1.10,2013-03-02 15:00:00,
2013-03-02 10:15:00,23.3,18.0,30.05,NNW,340,4.0,-999.0,81,-99.99,,,0.00,weatherlink.com 1.10,2013-03-02 15:15:00,
2013-03-02 10:30:00,23.6,19.0,30.05,NW,320,7.0,-999.0,81,-99.99,,,0.00,weatherlink.com 1.10,2013-03-02 15:30:00,
2013-03-02 10:45:00,24.2,19.0,30.05,NW,323,5.0,-999.0,81,-99.99,,,0.00,weatherlink.com 1.10,2013-03-02 15:45:00,
2013-03-02 11:00:00,24.5,19.0,30.05,WNW,299,6.0,-999.0,80,-99.99,,,0.00,weatherlink.com 1.10,2013-03-02 16:00:00,
2013-03-02 11:15:00,25.0,19.0,30.05,NW,315,2.0,-999.0,78,-99.99,,,0.00,weatherlink.com 1.10,2013-03-02 16:15:00,
2013-03-02 11:30:00,24.8,19.0,30.05,NNW,336,9.0,-999.0,78,-99.99,,,0.00,weatherlink.com 1.10,2013-03-02 16:30:00,
2013-03-02 11:45:00,25.4,19.0,30.04,North,5,5.0,-999.0,78,-99.99,,,0.00,weatherlink.com 1.10,2013-03-02 16:45:00,
2013-03-02 12:00:00,25.4,19.0,30.04,North,355,7.0,-999.0,77,-99.99,,,0.00,weatherlink.com 1.10,2013-03-02 17:00:00,
2013-03-02 12:15:00,25.4,19.0,30.04,NW,318,4.0,-999.0,76,-99.99,,,0.00,weatherlink.com 1.10,2013-03-02 17:15:00,
2013-03-02 12:30:00,25.3,18.0,30.04,NW,326,7.0,-999.0,75,-99.99,,,0.00,weatherlink.com 1.10,2013-03-02 17:30:00,
2013-03-02 12:45:00,25.0,18.0,30.04,NNW,331,7.0,-999.0,76,-99.99,,,0.00,weatherlink.com 1.10,2013-03-02 17:45:00,
2013-03-02 13:00:00,25.1,19.0,30.04,NNW,348,10.0,-999.0,76,-99.99,,,0.00,weatherlink.com 1.10,2013-03-02 18:00:00,
2013-03-02 13:15:00,25.0,18.0,30.04,North,355,5.0,-999.0,76,-99.99,,,0.00,weatherlink.com 1.10,2013-03-02 18:15:00,
2013-03-02 13:30:00,24.8,18.0,30.03,NW,321,5.0,-999.0,76,-99.99,,,0.00,weatherlink.com 1.10,2013-03-02 18:30:00,
2013-03-02 13:45:00,25.1,19.0,30.03,NW,316,4.0,-999.0,76,-99.99,,,0.00,weatherlink.com 1.10,2013-03-02 18:45:00,
2013-03-02 14:00:00,25.1,18.0,30.03,NW,318,5.0,-999.0,75,-99.99,,,0.00,weatherlink.com 1.10,2013-03-02 19:00:00,
2013-03-02 14:15:00,25.3,18.0,30.03,NNW,347,7.0,-999.0,74,-99.99,,,0.00,weatherlink.com 1.10,2013-03-02 19:15:00,
2013-03-02 14:30:00,25.0,18.0,30.02,NNW,346,6.0,-999.0,75,-99.99,,,0.00,weatherlink.com 1.10,2013-03-02 19:30:00,
2013-03-02 14:45:00,25.1,18.0,30.02,North,355,6.0,-999.0,75,-99.99,,,0.00,weatherlink.com 1.10,2013-03-02 19:45:00,
2013-03-02 15:00:00,25.1,18.0,30.02,NW,325,6.0,-999.0,74,-99.99,,,0.00,weatherlink.com 1.10,2013-03-02 20:00:00,
2013-03-02 15:15:00,25.0,18.0,30.02,North,355,6.0,-999.0,74,-99.99,,,0.00,weatherlink.com 1.10,2013-03-02 20:15:00,
2013-03-02 15:30:00,25.0,18.0,30.02,NNW,338,6.0,-999.0,74,-99.99,,,0.00,weatherlink.com 1.10,2013-03-02 20:30:00,
2013-03-02 15:45:00,25.0,18.0,30.02,NW,321,5.0,-999.0,74,-99.99,,,0.00,weatherlink.com 1.10,2013-03-02 20:45:00,
2013-03-02 16:00:00,25.0,17.0,30.02,NW,323,4.0,-999.0,73,-99.99,,,0.00,weatherlink.com 1.10,2013-03-02 21:00:00,
2013-03-02 16:15:00,24.8,17.0,30.02,NW,323,6.0,-999.0,73,-99.99,,,0.00,weatherlink.com 1.10,2013-03-02 21:15:00,
2013-03-02 16:30:00,24.8,18.0,30.02,NW,320,5.0,-999.0,74,-99.99,,,0.00,weatherlink.com 1.10,2013-03-02 21:30:00,
2013-03-02 16:45:00,24.7,18.0,30.02,NNW,334,4.0,-999.0,74,-99.99,,,0.00,weatherlink.com 1.10,2013-03-02 21:45:00,
2013-03-02 17:00:00,24.7,17.0,30.03,North,355,4.0,-999.0,73,-99.99,,,0.00,weatherlink.com 1.10,2013-03-02 22:00:00,
2013-03-02 17:15:00,24.5,17.0,30.03,NW,319,5.0,-999.0,74,-99.99,,,0.00,weatherlink.com 1.10,2013-03-02 22:15:00,
2013-03-02 17:30:00,24.4,17.0,30.03,NNW,343,4.0,-999.0,73,-99.99,,,0.00,weatherlink.com 1.10,2013-03-02 22:30:00,
2013-03-02 17:45:00,24.2,17.0,30.04,WNW,290,5.0,-999.0,74,-99.99,,,0.00,weatherlink.com 1.10,2013-03-02 22:45:00,
2013-03-02 18:00:00,23.9,17.0,30.04,NNW,327,5.0,-999.0,74,-99.99,,,0.00,weatherlink.com 1.10,2013-03-02 23:00:00,
2013-03-02 18:15:00,23.8,17.0,30.04,NNW,330,4.0,-999.0,75,-99.99,,,0.00,weatherlink.com 1.10,2013-03-02 23:15:00,
2013-03-02 18:30:00,23.6,17.0,30.04,NW,317,5.0,-999.0,75,-99.99,,,0.00,weatherlink.com 1.10,2013-03-02 23:30:00,
2013-03-02 18:45:00,23.6,17.0,30.05,NW,308,4.0,-999.0,75,-99.99,,,0.00,weatherlink.com 1.10,2013-03-02 23:45:00,
2013-03-02 19:00:00,23.5,17.0,30.05,NW,313,3.0,-999.0,75,-99.99,,,0.00,weatherlink.com 1.10,2013-03-03 00:00:00,
2013-03-02 19:15:00,23.5,17.0,30.05,NNW,332,5.0,-999.0,76,-99.99,,,0.00,weatherlink.com 1.10,2013-03-03 00:15:00,
2013-03-02 19:30:00,23.3,17.0,30.05,North,349,7.0,-999.0,76,-99.99,,,0.00,weatherlink.com 1.10,2013-03-03 00:30:00,
2013-03-02 19:45:00,23.3,17.0,30.05,NNW,344,4.0,-999.0,76,-99.99,,,0.00,weatherlink.com 1.10,2013-03-03 00:45:00,
2013-03-02 20:00:00,23.2,17.0,30.05,NNW,344,4.0,-999.0,76,-99.99,,,0.00,weatherlink.com 1.10,2013-03-03 01:00:00,
2013-03-02 20:15:00,23.2,17.0,30.05,NNW,342,5.0,-999.0,77,-99.99,,,0.00,weatherlink.com 1.10,2013-03-03 01:15:00,
2013-03-02 20:30:00,23.0,17.0,30.05,NW,315,2.0,-999.0,77,-99.99,,,0.00,weatherlink.com 1.10,2013-03-03 01:30:00,
2013-03-02 20:45:00,22.9,16.0,30.05,NW,323,1.0,-999.0,76,-99.99,,,0.00,weatherlink.com 1.10,2013-03-03 01:45:00,
2013-03-02 21:00:00,22.9,16.0,30.04,NW,312,1.0,-999.0,76,-99.99,,,0.00,weatherlink.com 1.10,2013-03-03 02:00:00,
2013-03-02 21:15:00,22.7,16.0,30.04,NW,313,2.0,-999.0,75,-99.99,,,0.00,weatherlink.com 1.10,2013-03-03 02:15:00,
2013-03-02 21:30:00,22.7,16.0,30.04,NNW,331,0.0,-999.0,75,-99.99,,,0.00,weatherlink.com 1.10,2013-03-03 02:30:00,
2013-03-02 21:45:00,22.7,16.0,30.05,WNW,300,2.0,-999.0,74,-99.99,,,0.00,weatherlink.com 1.10,2013-03-03 02:45:00,
2013-03-02 22:00:00,22.7,16.0,30.05,NNW,342,1.0,-999.0,75,-99.99,,,0.00,weatherlink.com 1.10,2013-03-03 03:00:00,
2013-03-02 22:15:00,22.7,16.0,30.05,NW,325,6.0,-999.0,74,-99.99,,,0.00,weatherlink.com 1.10,2013-03-03 03:15:00,
2013-03-02 22:30:00,22.7,16.0,30.05,NW,323,3.0,-999.0,74,-99.99,,,0.00,weatherlink.com 1.10,2013-03-03 03:30:00,
2013-03-02 22:45:00,22.2,15.0,30.04,West,263,0.0,-999.0,75,-99.99,,,0.00,weatherlink.com 1.10,2013-03-03 03:45:00,
2013-03-02 23:00:00,21.6,15.0,30.04,West,263,0.0,-999.0,76,-99.99,,,0.00,weatherlink.com 1.10,2013-03-03 04:00:00,
2013-03-02 23:15:00,21.4,15.0,30.04,West,263,0.0,-999.0,77,-99.99,,,0.00,weatherlink.com 1.10,2013-03-03 04:15:00,
2013-03-02 23:30:00,21.4,15.0,30.04,West,263,1.0,-999.0,77,-99.99,,,0.00,weatherlink.com 1.10,2013-03-03 04:30:00,
2013-03-02 23:45:00,21.6,15.0,30.04,West,263,1.0,-999.0,77,-99.99,,,0.00,weatherlink.com 1.10,2013-03-03 04:45:00,